Aérodrome :
LOGIN :

S'inscrire | Disclaimer

   EN    FR    IT 

 










Légende :    VFR   VFR Marginal   IFR   IFR Intensif   IFR Très Intensif
Visi : 
Plafond : 
>= 8 km
>= 3000ft
5 à 8 km
1000 à 3000 ft
1500m à 5 km
500 à 1000 ft
800 à 1500m
200 à 500 ft
< 800m
< 200 ft
Symboles :   Orages  Brouillard  Fortes neiges  Fortes précipitations  Vent > 20 kt
SIGMETs :   Divers  Orages  Givrage  Turbulence  Onde Orograph.  Cendres Volcan.







- Altitude de l'aérodrome : 863 ft
- Code IATA : ZAZ


LEZG - Zaragoza Aragon

DERNIER METAR :
  • 200030Z 29011KT CAVOK 21/14 Q1021

METARs EXPIRÉS :
  • 200000Z 30014KT CAVOK 21/14 Q1021
  • 192330Z 30013KT 260V320 CAVOK 22/15 Q1021
  • 192300Z 30014KT CAVOK 22/15 Q1021
  • 192230Z 29013KT 260V320 CAVOK 23/15 Q1021
  • 192200Z 29014KT CAVOK 23/15 Q1020

TAF TAF LEZG
Valide du 20 à 00h jusqu'au 21 à 00h UTC


192300Z 2000/2024 30012KT 9999 FEW050 TX34/2014Z TN19/2006Z
Pas de NOTAMs connus pour ce terrain.



MET'MAP, la Météo Aéronautique d'un coup d'oeil ! - Copyright ORBIFLY Décembre 2007 - Disclaimer

ORBIFLY MET'MAP TEAM :

Programmation & Développement : Alexandra Zaïnal
Conception & Développement : Baudouin d'Aumeries
Co-Programmation & Développement : Marc-Olivier Méhu
Soutien technique & logistique : Manuel Goepfert

Contact : metmap@orbifly.com




SOURCES & CREDITS :

   NOAA